[[{"header":{"parameterUnit":"m.s-1","parameterCategory":1,"la1":30.2991,"la2":30.254,"lo1":-89.0895,"lo2":-89.0444,"dy":0.0017,"dx":0.0017,"nx":28,"ny":28,"refTime":"2024-04-16T21:00:00:Z","depth":0,"parameterNumber":2,"parameterNumberName":"U-component_of_WINDS"},"data":[0,0,0,0,0,0,0,0,0,0,0,0,0,0,0,0,0,0,0,0,0,0,0,0,0,0,0,0,0,0,0,0,0,0,0,0,0,0,0,0,0,0,0,0,0,0,0,0,0,0,0,0,0,0,0,0,0,0,-2.5749,-2.5751,0,-2.5893,-2.5895,-2.5896,-2.5955,-2.5955,-2.5954,-2.5954,-2.6105,-2.6109,-2.6113,0,0,0,0,0,0,0,0,0,0,0,0,0,-2.553,-2.5534,-2.5749,-2.5751,-2.5753,-2.5893,-2.5895,-2.5897,-2.5955,-2.5955,-2.5954,-2.5954,-2.6103,-2.6108,-2.6113,0,0,0,0,0,0,0,0,0,0,0,0,0,-2.5645,-2.5535,-2.5749,-2.5798,-2.5804,-2.5892,-2.5895,-2.5897,-2.5955,-2.5955,-2.5954,-2.5954,-2.6101,-2.6108,-2.6114,-2.6164,0,0,-2.6134,-2.6137,0,0,0,0,0,0,0,0,-2.5638,-2.5653,-2.5789,-2.5795,-2.5802,-2.5905,-2.5873,-2.5987,-2.5955,-2.5898,-2.5954,-2.5953,-2.6039,-2.6051,-2.6079,-2.6171,-2.6178,-2.6135,-2.6138,-2.6141,-2.6143,0,0,0,0,0,0,0,-2.563,-2.5647,-2.5806,-2.5791,-2.5799,-2.5815,-2.5831,-2.5895,-2.597,-2.5903,-2.5908,-2.5924,-2.6042,-2.6072,-2.6083,-2.618,-2.6134,-2.614,-2.6144,-2.6147,-2.6324,-2.6324,0,0,0,0,0,0,-2.5613,-2.564,-2.5801,-2.581,-2.5717,-2.582,-2.5837,-2.5873,-2.5969,-2.5983,-2.5924,-2.5926,-2.6062,-2.6075,-2.6088,-2.6154,-2.6141,-2.6147,-2.6151,-2.6323,-2.6324,-2.6325,0,0,0,0,0,0,-2.5608,-2.5627,-2.5796,-2.5726,-2.5749,-2.5824,-2.5863,-2.5876,-2.5906,-2.5985,-2.5999,-2.594,-2.6062,-2.6079,-2.6145,-2.616,-2.615,-2.6156,-2.6322,-2.6323,-2.6324,-2.6286,0,0,0,0,0,0,-2.5602,-2.5625,-2.5643,-2.5726,-2.5752,-2.5848,-2.5864,-2.5879,-2.5916,-2.592,-2.6004,-2.6017,-2.6063,-2.6135,-2.6152,-2.6169,-2.6161,-2.6321,-2.6322,-2.6324,-2.6286,-2.6286,-2.6285,0,0,0,0,0,-2.5594,-2.5627,-2.5644,-2.5663,-2.5777,-2.5849,-2.5864,-2.5915,-2.5917,-2.5938,-2.5989,-2.6015,-2.6156,-2.6141,-2.616,-2.618,-2.632,-2.6322,-2.6324,-2.6286,-2.6286,-2.6285,0,0,0,0,0,0,-2.5544,-2.5639,-2.5658,-2.5719,-2.5776,-2.5859,-2.5885,-2.5912,-2.597,-2.5971,-2.6032,-2.6051,-2.6112,-2.6153,-2.6135,-2.6235,-2.624,-2.6246,-2.6205,-2.6206,-2.6205,-2.6194,-2.6167,0,0,0,0,0,-2.554,-2.559,-2.567,-2.5716,-2.5744,-2.581,-2.5843,-2.5877,-2.5938,-2.5963,-2.6019,-2.6078,-2.6137,-2.6174,-2.6231,-2.6293,-2.6313,-2.6316,-2.6316,-2.6315,-2.6319,-2.6356,-2.6359,-2.6331,-2.6331,-2.6331,0,0,-2.5533,-2.5591,-2.5618,-2.5708,-2.5756,-2.5807,-2.5829,-2.5882,-2.5922,-2.5971,-2.6037,-2.608,-2.6151,-2.6216,-2.6247,-2.6252,-2.6331,-2.6317,-2.6316,-2.6321,-2.6358,-2.6361,-2.6363,-2.6332,-2.6332,-2.6331,0,0,-2.5546,-2.5594,-2.5638,-2.5686,-2.5757,-2.5802,-2.5812,-2.5892,-2.5923,-2.5989,-2.6028,-2.6077,-2.6175,-2.6225,-2.6263,-2.6297,-2.6324,-2.6314,-2.6312,-2.6348,-2.635,-2.6352,-2.6365,-2.6369,-2.6318,-2.6318,-2.6318,0,-2.5528,-2.5605,-2.5658,-2.5709,-2.5748,-2.5795,-2.5842,-2.5886,-2.5973,-2.6,-2.6004,-2.613,-2.6181,-2.6259,-2.6267,-2.6296,-2.6312,-2.6304,-2.6345,-2.6348,-2.6351,-2.6364,-2.6369,-2.6317,-2.6317,-2.6317,-2.6317,0,-2.558,-2.5634,-2.5661,-2.5743,-2.5786,-2.5835,-2.5896,-2.5934,-2.5965,-2.6009,-2.6078,-2.6141,-2.6213,-2.6234,-2.6265,-2.6317,-2.6318,-2.6333,-2.6339,-2.6351,-2.6364,-2.637,-2.6314,-2.6315,-2.6315,-2.6316,0,0,-2.5564,-2.5676,-2.5685,-2.5724,-2.5808,-2.5851,-2.5903,-2.5973,-2.6004,-2.6064,-2.611,-2.6194,-2.6208,-2.6252,-2.6289,-2.632,-2.6345,-2.6332,-2.6335,-2.6333,-2.6408,-2.6395,-2.64,-2.6364,-2.6365,-2.6366,-2.6402,0,-2.5589,-2.5681,-2.5731,-2.5804,-2.5855,-2.5902,-2.5948,-2.6005,-2.6049,-2.61,-2.6149,-2.6207,-2.6222,-2.6248,-2.6282,-2.6335,-2.6361,-2.6333,-2.6409,-2.6411,-2.6389,-2.6407,-2.6394,-2.6425,-2.6407,-2.6408,-2.6409,0,-2.5629,-2.5687,-2.5764,-2.5843,-2.5867,-2.5907,-2.5976,-2.6024,-2.6091,-2.6121,-2.617,-2.6207,-2.6266,-2.6269,-2.6352,-2.6332,-2.6366,-2.6397,-2.64,-2.6409,-2.641,-2.6416,-2.6436,-2.644,-2.6418,-2.6417,-2.6416,0,-2.561,-2.5708,-2.5767,-2.5799,-2.5893,-2.592,-2.5961,-2.6027,-2.6067,-2.6128,-2.6155,-2.6222,-2.6259,-2.6312,-2.6367,-2.6364,-2.6445,-2.6453,-2.6473,-2.6471,-2.6487,-2.6485,-2.6512,-2.6509,-2.6509,-2.6509,-2.6509,0,-2.5632,-2.5677,-2.576,-2.5796,-2.585,-2.5908,-2.596,-2.6005,-2.6064,-2.6112,-2.6157,-2.6201,-2.6272,-2.6326,-2.637,-2.6433,-2.6449,-2.6476,-2.6487,-2.6472,-2.6468,-2.6495,-2.6494,-2.6511,-2.651,-2.651,-2.651,0,-2.5619,-2.5676,-2.5744,-2.5828,-2.585,-2.5886,-2.5959,-2.5997,-2.6043,-2.6103,-2.6121,-2.6194,-2.626,-2.6321,-2.6408,-2.6438,-2.6502,-2.6516,-2.6478,-2.6484,-2.6501,-2.6499,-2.6546,-2.6555,-2.6546,-2.6546,-2.6546,0,-2.5629,-2.5665,-2.5753,-2.5787,-2.5827,-2.5882,-2.5922,-2.5982,-2.6023,-2.6103,-2.6132,-2.6201,-2.6259,-2.6362,-2.6425,-2.6493,-2.6509,-2.6521,-2.652,-2.6503,-2.651,-2.6507,-2.6511,-2.652,-2.6519,-2.6519,-2.6519,0,-2.5641,-2.5668,-2.5723,-2.5789,-2.5836,-2.5891,-2.5948,-2.5974,-2.6046,-2.6089,-2.6156,-2.6201,-2.6291,-2.636,-2.6435,-2.6479,-2.6512,-2.6519,-2.6528,-2.6512,-2.6489,-2.6502,-2.6476,-2.6518,-2.6518,-2.6518,-2.6518,-2.6518,-2.5641,-2.5675,-2.5742,-2.5804,-2.5853,-2.5905,-2.5946,-2.5997,-2.6053,-2.613,-2.6163,-2.6231,-2.63,-2.6405,-2.6449,-2.6505,-2.6512,-2.6523,-2.6527,-2.6529,-2.6526,-2.648,-2.6519,-2.6519,-2.6519,-2.6519,-2.6519,0,-2.5655,-2.5701,-2.5756,-2.5834,-2.5883,-2.5908,-2.5973,-2.6013,-2.6072,-2.6133,-2.6189,-2.6267,-2.6334,-2.6402,-2.6474,-2.6505,-2.6522,-2.6522,-2.652,-2.653,-2.6515,-2.6501,-2.6507,-2.6507,-2.6507,-2.6507,-2.6507,-2.6507,-2.5669,-2.5729,-2.5764,-2.585,-2.5897,-2.5963,-2.5998,-2.6047,-2.6096,-2.6181,-2.6236,-2.628,-2.6345,-2.6421,-2.6485,-2.6503,-2.6528,-2.6524,-2.6546,-2.6531,-2.6531,-2.6532,-2.6518,-2.6528,-2.6528,-2.6557,-2.6557,-2.6557]},{"header":{"parameterUnit":"m.s-1","parameterCategory":1,"la1":30.2991,"la2":30.254,"lo1":-89.0895,"lo2":-89.0444,"dy":0.0017,"dx":0.0017,"nx":28,"ny":28,"refTime":"2024-04-16T21:00:00:Z","depth":0,"parameterNumber":3,"parameterNumberName":"V-component_of_WINDS"},"data":[0,0,0,0,0,0,0,0,0,0,0,0,0,0,0,0,0,0,0,0,0,0,0,0,0,0,0,0,0,0,0,0,0,0,0,0,0,0,0,0,0,0,0,0,0,0,0,0,0,0,0,0,0,0,0,0,0,0,5.1225,5.1225,0,5.1245,5.1245,5.1245,5.1245,5.1245,5.1244,5.1244,5.1262,5.1263,5.1263,0,0,0,0,0,0,0,0,0,0,0,0,0,5.1188,5.1189,5.1225,5.1226,5.1226,5.1244,5.1245,5.1245,5.1245,5.1245,5.1244,5.1244,5.1262,5.1263,5.1264,0,0,0,0,0,0,0,0,0,0,0,0,0,5.1205,5.1189,5.1225,5.1228,5.1228,5.1244,5.1245,5.1245,5.1245,5.1245,5.1244,5.1244,5.1262,5.1263,5.1264,5.1278,0,0,5.1267,5.1267,0,0,0,0,0,0,0,0,5.1204,5.1207,5.1227,5.1228,5.1228,5.1242,5.1238,5.1256,5.1245,5.1239,5.1244,5.1244,5.1256,5.1257,5.1261,5.1279,5.1279,5.1267,5.1268,5.1268,5.1268,0,0,0,0,0,0,0,5.1203,5.1206,5.1233,5.1228,5.1228,5.1228,5.123,5.1242,5.1249,5.1239,5.1239,5.1242,5.1256,5.126,5.1262,5.128,5.1267,5.1268,5.1269,5.1269,5.1311,5.1311,0,0,0,0,0,0,5.1201,5.1205,5.1232,5.1233,5.1215,5.1229,5.1231,5.1238,5.1249,5.125,5.1242,5.1241,5.1259,5.1261,5.1263,5.1281,5.1268,5.1269,5.127,5.131,5.1311,5.1311,0,0,0,0,0,0,5.1201,5.1204,5.1231,5.1219,5.1223,5.123,5.1237,5.1238,5.1243,5.1251,5.1252,5.1245,5.1259,5.1261,5.1274,5.1281,5.127,5.1271,5.131,5.131,5.1311,5.1317,0,0,0,0,0,0,5.12,5.1204,5.1209,5.1219,5.1223,5.1243,5.1238,5.1239,5.1245,5.1245,5.1254,5.1256,5.1258,5.1273,5.1275,5.1283,5.1271,5.1309,5.131,5.1311,5.1316,5.1318,5.1319,0,0,0,0,0,5.1198,5.1209,5.1209,5.1213,5.123,5.1244,5.1246,5.1249,5.1246,5.1251,5.1257,5.1255,5.128,5.1274,5.1277,5.1285,5.1309,5.131,5.1311,5.1315,5.1317,5.1319,0,0,0,0,0,0,5.1199,5.1211,5.1211,5.1225,5.1234,5.1244,5.1251,5.1251,5.126,5.1259,5.1263,5.1265,5.1279,5.1283,5.1276,5.13,5.1294,5.1296,5.1296,5.1298,5.13,5.1299,5.1272,0,0,0,0,0,5.1201,5.1211,5.122,5.1232,5.1236,5.1243,5.1249,5.1251,5.1259,5.1263,5.1269,5.1276,5.1286,5.1292,5.1301,5.1317,5.1319,5.1323,5.1325,5.1326,5.1328,5.1337,5.1339,5.1315,5.1315,5.1315,0,0,5.1204,5.1212,5.1218,5.1233,5.1239,5.125,5.1246,5.1256,5.1264,5.1264,5.1278,5.1282,5.1291,5.1306,5.1313,5.131,5.1335,5.1327,5.1328,5.1329,5.1338,5.1341,5.1343,5.1315,5.1315,5.1315,0,0,5.1217,5.1223,5.1235,5.1242,5.1252,5.1257,5.126,5.127,5.1273,5.1287,5.1287,5.1297,5.1313,5.132,5.1325,5.1342,5.1342,5.1345,5.1353,5.1362,5.1364,5.1366,5.1373,5.1375,5.1346,5.1346,5.1346,0,5.122,5.1236,5.124,5.1252,5.1259,5.126,5.1272,5.1278,5.1291,5.1295,5.1292,5.1314,5.132,5.1337,5.1341,5.1345,5.1349,5.1344,5.1363,5.1365,5.1367,5.1374,5.1376,5.1347,5.1347,5.1347,5.1347,0,5.124,5.1251,5.1259,5.1273,5.128,5.1292,5.1298,5.1305,5.1307,5.1312,5.1326,5.1334,5.1345,5.1349,5.1351,5.1367,5.1365,5.1363,5.1357,5.137,5.1376,5.1379,5.1347,5.1347,5.1347,5.1347,0,0,5.1252,5.127,5.1272,5.1279,5.1292,5.13,5.1312,5.1324,5.1331,5.134,5.135,5.1365,5.1363,5.1369,5.1372,5.138,5.1394,5.1376,5.1377,5.138,5.1414,5.1416,5.1419,5.1394,5.1394,5.1395,5.1413,0,5.1267,5.1289,5.1294,5.1313,5.1324,5.1326,5.1336,5.1345,5.135,5.136,5.1365,5.1376,5.1372,5.1377,5.1385,5.1391,5.1401,5.1389,5.1404,5.1404,5.1402,5.1422,5.1424,5.1442,5.1416,5.1416,5.1416,0,5.1286,5.1297,5.1318,5.133,5.1335,5.1344,5.1357,5.1366,5.1376,5.138,5.1388,5.1389,5.1402,5.1396,5.1414,5.1406,5.1412,5.1416,5.1417,5.1419,5.1412,5.1426,5.1447,5.145,5.142,5.142,5.142,0,5.1295,5.1315,5.133,5.1335,5.135,5.1357,5.1363,5.1373,5.138,5.1391,5.1396,5.1407,5.1414,5.1423,5.1428,5.1422,5.1446,5.1439,5.1449,5.1449,5.1454,5.1454,5.1478,5.1457,5.1457,5.1457,5.1457,0,5.1311,5.1324,5.1334,5.1343,5.1358,5.1363,5.1377,5.1384,5.1393,5.1404,5.1405,5.1415,5.1421,5.1432,5.1435,5.1451,5.1453,5.1456,5.1457,5.1457,5.1456,5.1461,5.146,5.1458,5.1457,5.1457,5.1457,0,5.1323,5.133,5.1347,5.136,5.1364,5.1374,5.1385,5.1394,5.14,5.1413,5.1417,5.1425,5.1438,5.1444,5.146,5.1462,5.148,5.148,5.1477,5.1477,5.1487,5.1487,5.1516,5.1521,5.1496,5.1496,5.1496,0,5.1333,5.1343,5.1358,5.1366,5.1372,5.1384,5.1393,5.1399,5.1407,5.1421,5.1428,5.1442,5.1453,5.1473,5.1481,5.1493,5.1494,5.1503,5.1495,5.1495,5.1495,5.1495,5.1496,5.1505,5.1505,5.1505,5.1505,0,5.1351,5.1354,5.1366,5.138,5.139,5.1401,5.1411,5.1417,5.1425,5.1435,5.1449,5.1457,5.1474,5.1488,5.1501,5.1507,5.1508,5.1508,5.1511,5.1511,5.1509,5.1511,5.1482,5.1507,5.1507,5.1507,5.1507,5.1506,5.1362,5.1372,5.1385,5.1398,5.1407,5.1417,5.1427,5.1435,5.1447,5.1462,5.1464,5.148,5.1491,5.1509,5.1515,5.1527,5.1525,5.1529,5.153,5.1532,5.1533,5.1507,5.1529,5.1529,5.1529,5.1529,5.1529,0,5.1381,5.139,5.1402,5.1418,5.1429,5.1429,5.1442,5.1451,5.1464,5.1475,5.1486,5.1503,5.1516,5.1525,5.1539,5.1547,5.1548,5.155,5.155,5.1552,5.1533,5.153,5.155,5.155,5.155,5.155,5.155,5.155,5.1392,5.1409,5.1414,5.1436,5.1444,5.146,5.1467,5.1477,5.1485,5.1504,5.1516,5.1522,5.1532,5.1547,5.156,5.1562,5.1567,5.157,5.1573,5.1555,5.1553,5.1551,5.1548,5.1571,5.1571,5.159,5.159,5.1591]}]]